Time,TemperatureF,DewpointF,PressureIn,WindDirection,WindDirectionDegrees,WindSpeedMPH,WindSpeedGustMPH,Humidity,HourlyPrecipIn,Conditions,Clouds,dailyrainin,SoftwareType,DateUTC
2013-07-30 00:12:00,-999.0,-99.9,26.62,North,-999,-999.0,-999.0,-999,0.00,,,0.00,weatherlink.com 1.10,2013-07-30 04:12:00,
2013-07-30 00:27:00,-999.0,-99.9,26.62,North,-999,-999.0,-999.0,-999,0.00,,,0.00,weatherlink.com 1.10,2013-07-30 04:27:00,
2013-07-30 00:42:00,-999.0,-99.9,26.62,North,-999,-999.0,-999.0,-999,0.00,,,0.00,weatherlink.com 1.10,2013-07-30 04:42:00,
2013-07-30 01:12:00,-999.0,-99.9,26.61,North,-999,-999.0,-999.0,-999,0.00,,,0.00,weatherlink.com 1.10,2013-07-30 05:12:00,
2013-07-30 01:27:00,-999.0,-99.9,26.61,North,-999,-999.0,-999.0,-999,0.00,,,0.00,weatherlink.com 1.10,2013-07-30 05:27:00,
2013-07-30 01:42:00,-999.0,-99.9,26.61,North,-999,-999.0,-999.0,-999,0.00,,,0.00,weatherlink.com 1.10,2013-07-30 05:42:00,
2013-07-30 01:57:00,-999.0,-99.9,26.61,North,-999,-999.0,-999.0,-999,0.00,,,0.00,weatherlink.com 1.10,2013-07-30 05:57:00,
2013-07-30 02:12:00,-999.0,-99.9,26.61,North,-999,-999.0,-999.0,-999,0.00,,,0.00,weatherlink.com 1.10,2013-07-30 06:12:00,
2013-07-30 02:27:00,-999.0,-99.9,26.60,North,-999,-999.0,-999.0,-999,0.00,,,0.00,weatherlink.com 1.10,2013-07-30 06:27:00,
2013-07-30 02:43:00,-999.0,-99.9,26.60,North,-999,-999.0,-999.0,-999,0.00,,,0.00,weatherlink.com 1.10,2013-07-30 06:43:00,
2013-07-30 02:58:00,-999.0,-99.9,26.60,North,-999,-999.0,-999.0,-999,0.00,,,0.00,weatherlink.com 1.10,2013-07-30 06:58:00,
2013-07-30 03:13:00,-999.0,-99.9,26.60,North,-999,-999.0,-999.0,-999,0.00,,,0.00,weatherlink.com 1.10,2013-07-30 07:13:00,
2013-07-30 03:28:00,-999.0,-99.9,26.60,North,-999,-999.0,-999.0,-999,0.00,,,0.00,weatherlink.com 1.10,2013-07-30 07:28:00,
2013-07-30 03:43:00,-999.0,-99.9,26.60,North,-999,-999.0,-999.0,-999,0.00,,,0.00,weatherlink.com 1.10,2013-07-30 07:43:00,
2013-07-30 03:58:00,-999.0,-99.9,26.60,North,-999,-999.0,-999.0,-999,0.00,,,0.00,weatherlink.com 1.10,2013-07-30 07:58:00,
2013-07-30 04:13:00,-999.0,-99.9,26.60,North,-999,-999.0,-999.0,-999,0.00,,,0.00,weatherlink.com 1.10,2013-07-30 08:13:00,
2013-07-30 04:28:00,-999.0,-99.9,26.60,North,-999,-999.0,-999.0,-999,0.00,,,0.00,weatherlink.com 1.10,2013-07-30 08:28:00,
2013-07-30 04:43:00,-999.0,-99.9,26.60,North,-999,-999.0,-999.0,-999,0.00,,,0.00,weatherlink.com 1.10,2013-07-30 08:43:00,
2013-07-30 04:58:00,-999.0,-99.9,26.61,North,-999,-999.0,-999.0,-999,0.00,,,0.00,weatherlink.com 1.10,2013-07-30 08:58:00,
2013-07-30 05:13:00,-999.0,-99.9,26.61,North,-999,-999.0,-999.0,-999,0.00,,,0.00,weatherlink.com 1.10,2013-07-30 09:13:00,
2013-07-30 05:28:00,-999.0,-99.9,26.61,North,-999,-999.0,-999.0,-999,0.00,,,0.00,weatherlink.com 1.10,2013-07-30 09:28:00,
2013-07-30 05:43:00,-999.0,-99.9,26.61,North,-999,-999.0,-999.0,-999,0.00,,,0.00,weatherlink.com 1.10,2013-07-30 09:43:00,
2013-07-30 05:59:00,-999.0,-99.9,26.62,North,-999,-999.0,-999.0,-999,0.00,,,0.00,weatherlink.com 1.10,2013-07-30 09:59:00,
2013-07-30 06:14:00,-999.0,-99.9,26.62,North,-999,-999.0,-999.0,-999,0.00,,,0.00,weatherlink.com 1.10,2013-07-30 10:14:00,
2013-07-30 06:29:00,-999.0,-99.9,26.62,North,-999,-999.0,-999.0,-999,0.00,,,0.00,weatherlink.com 1.10,2013-07-30 10:29:00,
2013-07-30 06:44:00,-999.0,-99.9,26.62,North,-999,-999.0,-999.0,-999,0.00,,,0.00,weatherlink.com 1.10,2013-07-30 10:44:00,
2013-07-30 06:59:00,-999.0,-99.9,26.62,North,-999,-999.0,-999.0,-999,0.00,,,0.00,weatherlink.com 1.10,2013-07-30 10:59:00,
2013-07-30 07:14:00,-999.0,-99.9,26.63,North,-999,-999.0,-999.0,-999,0.00,,,0.00,weatherlink.com 1.10,2013-07-30 11:14:00,
2013-07-30 07:29:00,-999.0,-99.9,26.63,North,-999,-999.0,-999.0,-999,0.00,,,0.00,weatherlink.com 1.10,2013-07-30 11:29:00,
2013-07-30 07:44:00,56.0,55.0,26.64,North,355,0.0,1.0,95,0.00,,,0.00,weatherlink.com 1.10,2013-07-30 11:44:00,
2013-07-30 07:59:00,56.9,55.0,26.64,North,355,0.0,0.0,93,0.00,,,0.00,weatherlink.com 1.10,2013-07-30 11:59:00,
2013-07-30 08:14:00,57.8,55.0,26.64,North,355,0.0,0.0,91,0.00,,,0.00,weatherlink.com 1.10,2013-07-30 12:14:00,
2013-07-30 08:29:00,59.0,56.0,26.64,North,355,0.0,0.0,90,0.00,,,0.00,weatherlink.com 1.10,2013-07-30 12:29:00,
2013-07-30 08:44:00,60.4,57.0,26.65,North,355,0.0,1.0,88,0.00,,,0.00,weatherlink.com 1.10,2013-07-30 12:44:00,
2013-07-30 08:59:00,61.6,57.0,26.65,North,355,0.0,1.0,84,0.00,,,0.00,weatherlink.com 1.10,2013-07-30 12:59:00,
2013-07-30 09:14:00,62.6,54.0,26.65,North,355,0.0,3.0,74,0.00,,,0.00,weatherlink.com 1.10,2013-07-30 13:14:00,
2013-07-30 09:29:00,63.5,55.0,26.65,North,355,2.0,4.0,73,0.00,,,0.00,weatherlink.com 1.10,2013-07-30 13:29:00,
2013-07-30 09:44:00,65.3,56.0,26.64,NNW,344,0.0,4.0,73,0.00,,,0.00,weatherlink.com 1.10,2013-07-30 13:44:00,
2013-07-30 09:59:00,65.6,56.0,26.64,NNW,334,0.0,4.0,72,0.00,,,0.00,weatherlink.com 1.10,2013-07-30 13:59:00,
2013-07-30 10:14:00,65.6,58.0,26.64,NNE,18,3.0,6.0,75,0.00,,,0.00,weatherlink.com 1.10,2013-07-30 14:14:00,
2013-07-30 10:29:00,65.6,56.0,26.64,ENE,71,2.0,5.0,70,0.00,,,0.00,weatherlink.com 1.10,2013-07-30 14:29:00,
2013-07-30 10:44:00,65.6,56.0,26.64,ESE,103,4.0,7.0,71,0.00,,,0.00,weatherlink.com 1.10,2013-07-30 14:44:00,
2013-07-30 10:59:00,66.3,57.0,26.64,SE,143,0.0,9.0,72,0.00,,,0.00,weatherlink.com 1.10,2013-07-30 14:59:00,
2013-07-30 11:14:00,66.3,56.0,26.63,SE,126,0.0,8.0,70,0.00,,,0.00,weatherlink.com 1.10,2013-07-30 15:14:00,
2013-07-30 11:30:00,65.8,56.0,26.63,ESE,113,1.0,8.0,71,0.00,,,0.00,weatherlink.com 1.10,2013-07-30 15:30:00,
2013-07-30 11:45:00,66.1,57.0,26.64,ESE,111,2.0,9.0,73,0.00,,,0.00,weatherlink.com 1.10,2013-07-30 15:45:00,
2013-07-30 12:00:00,66.4,58.0,26.63,East,96,1.0,6.0,73,0.00,,,0.00,weatherlink.com 1.10,2013-07-30 16:00:00,
2013-07-30 12:15:00,66.4,57.0,26.63,East,89,1.0,9.0,71,0.00,,,0.00,weatherlink.com 1.10,2013-07-30 16:15:00,
2013-07-30 12:30:00,67.1,57.0,26.63,ESE,109,3.0,10.0,71,0.00,,,0.00,weatherlink.com 1.10,2013-07-30 16:30:00,
2013-07-30 12:45:00,66.6,58.0,26.63,ESE,119,0.0,7.0,75,0.00,,,0.00,weatherlink.com 1.10,2013-07-30 16:45:00,
2013-07-30 13:00:00,66.9,58.0,26.63,East,85,1.0,11.0,73,0.00,,,0.00,weatherlink.com 1.10,2013-07-30 17:00:00,
2013-07-30 13:15:00,67.3,59.0,26.62,ENE,78,0.0,7.0,74,0.00,,,0.00,weatherlink.com 1.10,2013-07-30 17:15:00,
2013-07-30 13:30:00,68.4,59.0,26.62,ESE,120,2.0,7.0,72,0.00,,,0.00,weatherlink.com 1.10,2013-07-30 17:30:00,
2013-07-30 13:45:00,68.4,60.0,26.62,SSE,150,0.0,6.0,74,0.00,,,0.00,weatherlink.com 1.10,2013-07-30 17:45:00,
2013-07-30 14:00:00,68.3,60.0,26.62,SE,145,0.0,9.0,74,0.00,,,0.00,weatherlink.com 1.10,2013-07-30 18:00:00,
2013-07-30 14:15:00,67.9,60.0,26.62,East,84,0.0,8.0,76,0.00,,,0.00,weatherlink.com 1.10,2013-07-30 18:15:00,
2013-07-30 14:30:00,67.4,60.0,26.61,SE,136,0.0,8.0,78,0.00,,,0.00,weatherlink.com 1.10,2013-07-30 18:30:00,
2013-07-30 14:45:00,67.9,60.0,26.61,East,81,0.0,8.0,77,0.00,,,0.00,weatherlink.com 1.10,2013-07-30 18:45:00,
2013-07-30 15:00:00,67.9,60.0,26.61,ENE,74,0.0,5.0,77,0.00,,,0.00,weatherlink.com 1.10,2013-07-30 19:00:00,
2013-07-30 15:15:00,68.1,61.0,26.61,ENE,76,0.0,4.0,77,0.00,,,0.00,weatherlink.com 1.10,2013-07-30 19:15:00,
2013-07-30 15:30:00,68.3,61.0,26.61,ENE,76,0.0,3.0,77,0.00,,,0.00,weatherlink.com 1.10,2013-07-30 19:30:00,
2013-07-30 15:46:00,67.4,61.0,26.61,ENE,77,0.0,4.0,80,0.00,,,0.00,weatherlink.com 1.10,2013-07-30 19:46:00,
2013-07-30 16:00:00,67.9,61.0,26.61,ENE,78,0.0,3.0,78,0.00,,,0.00,weatherlink.com 1.10,2013-07-30 20:00:00,
2013-07-30 16:15:00,67.8,61.0,26.60,ESE,104,0.0,5.0,79,0.00,,,0.00,weatherlink.com 1.10,2013-07-30 20:15:00,
2013-07-30 16:30:00,68.1,61.0,26.60,ESE,105,0.0,7.0,79,0.00,,,0.00,weatherlink.com 1.10,2013-07-30 20:30:00,
2013-07-30 16:45:00,68.8,62.0,26.60,ESE,105,0.0,3.0,79,0.00,,,0.00,weatherlink.com 1.10,2013-07-30 20:45:00,
2013-07-30 17:00:00,68.3,62.0,26.60,ESE,108,0.0,5.0,80,0.00,,,0.00,weatherlink.com 1.10,2013-07-30 21:00:00,
2013-07-30 17:15:00,67.9,62.0,26.60,ESE,110,0.0,5.0,82,0.00,,,0.00,weatherlink.com 1.10,2013-07-30 21:15:00,
2013-07-30 17:30:00,66.9,62.0,26.60,ESE,112,0.0,4.0,83,0.00,,,0.00,weatherlink.com 1.10,2013-07-30 21:30:00,
2013-07-30 17:45:00,67.3,62.0,26.60,ESE,112,3.0,4.0,84,0.00,,,0.00,weatherlink.com 1.10,2013-07-30 21:45:00,
2013-07-30 18:00:00,66.9,62.0,26.60,ESE,112,3.0,3.0,84,0.00,,,0.00,weatherlink.com 1.10,2013-07-30 22:00:00,
2013-07-30 18:15:00,66.9,62.0,26.60,ESE,112,0.0,2.0,84,0.00,,,0.00,weatherlink.com 1.10,2013-07-30 22:15:00,
2013-07-30 18:30:00,66.8,62.0,26.59,ESE,112,0.0,0.0,85,0.00,,,0.00,weatherlink.com 1.10,2013-07-30 22:30:00,
2013-07-30 18:45:00,66.4,62.0,26.60,ESE,112,0.0,3.0,86,0.00,,,0.00,weatherlink.com 1.10,2013-07-30 22:45:00,
2013-07-30 19:00:00,66.1,62.0,26.59,ESE,112,0.0,0.0,87,0.00,,,0.00,weatherlink.com 1.10,2013-07-30 23:00:00,
2013-07-30 19:15:00,66.1,63.0,26.59,ESE,112,1.0,1.0,88,0.00,,,0.00,weatherlink.com 1.10,2013-07-30 23:15:00,
2013-07-30 19:30:00,65.8,63.0,26.59,ESE,112,0.0,0.0,90,0.00,,,0.00,weatherlink.com 1.10,2013-07-30 23:30:00,
2013-07-30 19:45:00,65.5,63.0,26.59,ESE,112,0.0,0.0,91,0.00,,,0.00,weatherlink.com 1.10,2013-07-30 23:45:00,
2013-07-30 20:00:00,-999.0,-99.9,26.59,North,-999,-999.0,-999.0,-999,0.00,,,0.00,weatherlink.com 1.10,2013-07-31 00:00:00,
2013-07-30 20:15:00,-999.0,-99.9,26.59,North,-999,-999.0,-999.0,-999,0.00,,,0.00,weatherlink.com 1.10,2013-07-31 00:15:00,
2013-07-30 20:30:00,-999.0,-99.9,26.59,North,-999,-999.0,-999.0,-999,0.00,,,0.00,weatherlink.com 1.10,2013-07-31 00:30:00,
2013-07-30 20:45:00,-999.0,-99.9,26.59,North,-999,-999.0,-999.0,-999,0.00,,,0.00,weatherlink.com 1.10,2013-07-31 00:45:00,
2013-07-30 21:00:00,-999.0,-99.9,26.59,North,-999,-999.0,-999.0,-999,0.00,,,0.00,weatherlink.com 1.10,2013-07-31 01:00:00,
2013-07-30 21:15:00,-999.0,-99.9,26.59,North,-999,-999.0,-999.0,-999,0.00,,,0.00,weatherlink.com 1.10,2013-07-31 01:15:00,
2013-07-30 21:30:00,-999.0,-99.9,26.60,North,-999,-999.0,-999.0,-999,0.00,,,0.00,weatherlink.com 1.10,2013-07-31 01:30:00,
2013-07-30 21:46:00,-999.0,-99.9,26.60,North,-999,-999.0,-999.0,-999,0.00,,,0.00,weatherlink.com 1.10,2013-07-31 01:46:00,
2013-07-30 22:01:00,-999.0,-99.9,26.60,North,-999,-999.0,-999.0,-999,0.00,,,0.00,weatherlink.com 1.10,2013-07-31 02:01:00,
2013-07-30 22:16:00,-999.0,-99.9,26.61,North,-999,-999.0,-999.0,-999,0.00,,,0.00,weatherlink.com 1.10,2013-07-31 02:16:00,
2013-07-30 22:31:00,-999.0,-99.9,26.61,North,-999,-999.0,-999.0,-999,0.00,,,0.00,weatherlink.com 1.10,2013-07-31 02:31:00,
2013-07-30 22:46:00,-999.0,-99.9,26.62,North,-999,-999.0,-999.0,-999,0.00,,,0.00,weatherlink.com 1.10,2013-07-31 02:46:00,
2013-07-30 23:16:00,-999.0,-99.9,26.61,North,-999,-999.0,-999.0,-999,0.00,,,0.00,weatherlink.com 1.10,2013-07-31 03:16:00,
2013-07-30 23:31:00,-999.0,-99.9,26.61,North,-999,-999.0,-999.0,-999,0.00,,,0.00,weatherlink.com 1.10,2013-07-31 03:31:00,
2013-07-30 23:46:00,-999.0,-99.9,26.61,North,-999,-999.0,-999.0,-999,0.00,,,0.00,weatherlink.com 1.10,2013-07-31 03:46:00,